,,,PA_Meas_PMT16A,,PR_Meas_QMR101_102,,RH_Meas_QMH101,,SR_Meas_QMS101,,TA_Meas_QMH101,,GenWind,,GenWind,
date,time,status,PA,status,PR,status,RH,status,SR,status,TA,status,DirAvg,status,SpdAvg,
2011-07-26, 00:00:04,VALID,1000.63,VALID,0,VALID,82.4075,VALID,0,VALID,23.7402,VALID,122,VALID,0.539844,
2011-07-26, 00:01:04,VALID,1000.64,VALID,0,VALID,82.3083,VALID,0,VALID,23.742,VALID,122,VALID,0.591016,
2011-07-26, 00:02:04,VALID,1000.62,VALID,0,VALID,82.4075,VALID,0,VALID,23.7012,VALID,105,VALID,0.750391,
2011-07-26, 00:03:04,VALID,1000.6,VALID,0,VALID,82.6517,VALID,0,VALID,23.6622,VALID,87,VALID,0.869922,
2011-07-26, 00:04:04,VALID,1000.59,VALID,0,VALID,82.995,VALID,0,VALID,23.6232,VALID,66,VALID,1.21836,
2011-07-26, 00:05:04,VALID,1000.56,VALID,0,VALID,83.7351,VALID,0,VALID,23.5061,VALID,58,VALID,1.34219,
2011-07-26, 00:06:04,VALID,1000.58,VALID,0,VALID,84.1852,VALID,0,VALID,23.311,VALID,52,VALID,1.15625,
2011-07-26, 00:07:04,VALID,1000.54,VALID,0,VALID,85.2305,VALID,0,VALID,23.1354,VALID,52,VALID,1.08555,
2011-07-26, 00:08:04,VALID,1000.52,VALID,0,VALID,85.9324,VALID,0,VALID,22.9598,VALID,52,VALID,1.3957,
2011-07-26, 00:09:04,VALID,1000.52,VALID,0,VALID,87.0234,VALID,0,VALID,22.8232,VALID,50,VALID,1.40156,
2011-07-26, 00:10:04,VALID,1000.5,VALID,0,VALID,87.7254,VALID,0,VALID,22.7062,VALID,50,VALID,1.32383,
2011-07-26, 00:11:04,VALID,1000.5,VALID,0,VALID,88.2442,VALID,0,VALID,22.6477,VALID,50,VALID,1.35938,
2011-07-26, 00:12:04,VALID,1000.49,VALID,0,VALID,88.3815,VALID,0,VALID,22.5501,VALID,50,VALID,1.29258,
2011-07-26, 00:13:04,VALID,1000.49,VALID,0,VALID,88.6409,VALID,0,VALID,22.4916,VALID,50,VALID,1.26484,
2011-07-26, 00:14:04,VALID,1000.51,VALID,0,VALID,88.8317,VALID,0,VALID,22.4119,VALID,50,VALID,1.11641,
2011-07-26, 00:15:04,VALID,1000.51,VALID,0,VALID,88.9843,VALID,0,VALID,22.4136,VALID,50,VALID,0.883203,
2011-07-26, 00:16:04,VALID,1000.49,VALID,0,VALID,88.9614,VALID,0,VALID,22.3746,VALID,50,VALID,0.752734,
2011-07-26, 00:17:04,VALID,1000.48,VALID,0,VALID,89.1368,VALID,0,VALID,22.3356,VALID,50,VALID,0.901563,
2011-07-26, 00:18:04,VALID,1000.44,VALID,0,VALID,89.3657,VALID,0,VALID,22.3161,VALID,50,VALID,1.03398,
2011-07-26, 00:19:04,VALID,1000.44,VALID,0,VALID,89.4115,VALID,0,VALID,22.3161,VALID,50,VALID,0.846875,
2011-07-26, 00:20:04,VALID,1000.44,VALID,0,VALID,89.3047,VALID,0,VALID,22.3161,VALID,50,VALID,0.69375,
2011-07-26, 00:21:04,VALID,1000.44,VALID,0,VALID,89.0987,VALID,0,VALID,22.3161,VALID,50,VALID,0.748828,
2011-07-26, 00:22:04,VALID,1000.47,VALID,0,VALID,88.9232,VALID,0,VALID,22.3339,VALID,50,VALID,0.722266,
2011-07-26, 00:23:04,VALID,1000.47,VALID,0,VALID,88.6867,VALID,0.112286,VALID,22.3941,VALID,50,VALID,0.846875,
2011-07-26, 00:24:04,VALID,1000.45,VALID,0,VALID,88.412,VALID,0,VALID,22.4119,VALID,50,VALID,0.719922,
2011-07-26, 00:25:04,VALID,1000.45,VALID,0,VALID,88.1908,VALID,0,VALID,22.4721,VALID,50,VALID,0.946484,
2011-07-26, 00:26:04,VALID,1000.46,VALID,0,VALID,88.0077,VALID,0,VALID,22.4721,VALID,50,VALID,0.828516,
2011-07-26, 00:27:04,VALID,1000.47,VALID,0,VALID,88.0153,VALID,0,VALID,22.5306,VALID,50,VALID,0.999219,
2011-07-26, 00:28:04,VALID,1000.45,VALID,0,VALID,87.939,VALID,0,VALID,22.5094,VALID,50,VALID,0.953906,
2011-07-26, 00:29:04,VALID,1000.44,VALID,0,VALID,88,VALID,0,VALID,22.5306,VALID,50,VALID,1.06367,
2011-07-26, 00:30:04,VALID,1000.43,VALID,0,VALID,88.0153,VALID,0,VALID,22.5306,VALID,50,VALID,1.01563,
2011-07-26, 00:31:04,VALID,1000.47,VALID,0,VALID,87.8856,VALID,0,VALID,22.5111,VALID,50,VALID,0.939453,
2011-07-26, 00:32:04,VALID,1000.46,VALID,0,VALID,87.8093,VALID,0,VALID,22.4526,VALID,30,VALID,1.17422,
2011-07-26, 00:33:04,VALID,1000.47,VALID,0,VALID,87.5651,VALID,0.112286,VALID,22.3551,VALID,30,VALID,1.25234,
2011-07-26, 00:34:04,VALID,1000.46,VALID,0,VALID,87.5194,VALID,0,VALID,22.2381,VALID,30,VALID,1.14141,
2011-07-26, 00:35:04,VALID,1000.45,VALID,0,VALID,87.7254,VALID,0,VALID,22.1405,VALID,30,VALID,0.942187,
2011-07-26, 00:36:04,VALID,1000.46,VALID,0,VALID,88.2289,VALID,0,VALID,22.082,VALID,30,VALID,0.783203,
2011-07-26, 00:37:04,VALID,1000.46,VALID,0,VALID,88.6333,VALID,0,VALID,22.0413,VALID,30,VALID,0.802734,
2011-07-26, 00:38:04,VALID,1000.46,VALID,0,VALID,88.7935,VALID,0,VALID,22.0413,VALID,30,VALID,0.642969,
2011-07-26, 00:39:04,VALID,1000.46,VALID,0,VALID,88.8546,VALID,0,VALID,22.0625,VALID,30,VALID,0.637109,
2011-07-26, 00:40:04,VALID,1000.47,VALID,0,VALID,88.8774,VALID,0.112286,VALID,22.0625,VALID,30,VALID,0.539844,
2011-07-26, 00:41:04,VALID,1000.41,VALID,0,VALID,88.908,VALID,0,VALID,22.0625,VALID,30,VALID,0.438281,
2011-07-26, 00:42:04,VALID,1000.39,VALID,0,VALID,88.8546,VALID,0,VALID,22.0625,VALID,30,VALID,0.153516,
2011-07-26, 00:43:04,VALID,1000.39,VALID,0,VALID,88.6562,VALID,0,VALID,22.043,VALID,30,VALID,0.251172,
2011-07-26, 00:44:04,VALID,1000.34,VALID,0,VALID,88.7172,VALID,0,VALID,22.004,VALID,30,VALID,0.214453,
2011-07-26, 00:45:04,VALID,1000.3,VALID,0,VALID,88.9537,VALID,0,VALID,21.9828,VALID,30,VALID,0.229297,
2011-07-26, 00:46:04,VALID,1000.29,VALID,0,VALID,89.0606,VALID,0,VALID,21.9633,VALID,30,VALID,0,
2011-07-26, 00:47:04,VALID,1000.26,VALID,0,VALID,89.1521,VALID,0,VALID,21.9845,VALID,30,VALID,0.282031,
2011-07-26, 00:48:04,VALID,1000.27,VALID,0,VALID,89.1674,VALID,0,VALID,21.9828,VALID,30,VALID,0.246484,
2011-07-26, 00:49:04,VALID,1000.28,VALID,0,VALID,89.2742,VALID,0,VALID,21.9828,VALID,30,VALID,0.199609,
2011-07-26, 00:50:04,VALID,1000.27,VALID,0,VALID,89.2971,VALID,0,VALID,22.0235,VALID,30,VALID,0.284375,
2011-07-26, 00:51:04,VALID,1000.25,VALID,0,VALID,89.5183,VALID,0,VALID,22.0625,VALID,30,VALID,0.387109,
2011-07-26, 00:52:04,VALID,1000.25,VALID,0,VALID,89.5336,VALID,0,VALID,22.0803,VALID,30,VALID,0.374219,
2011-07-26, 00:53:04,VALID,1000.24,VALID,0,VALID,89.4115,VALID,0,VALID,22.1405,VALID,42,VALID,0.624219,
2011-07-26, 00:54:04,VALID,1000.21,VALID,0,VALID,89.6175,VALID,0,VALID,22.2169,VALID,145,VALID,1.12539,
2011-07-26, 00:55:04,VALID,1000.22,VALID,0,VALID,89.3963,VALID,0,VALID,22.3941,VALID,136,VALID,0.894141,
2011-07-26, 00:56:04,VALID,1000.25,VALID,0,VALID,88.9156,VALID,0,VALID,22.5892,VALID,136,VALID,0.887109,
2011-07-26, 00:57:04,VALID,1000.23,VALID,0,VALID,88.1221,VALID,0,VALID,22.7647,VALID,154,VALID,0.721484,
2011-07-26, 00:58:04,VALID,1000.24,VALID,0,VALID,87.0463,VALID,0,VALID,22.8818,VALID,154,VALID,0.958203,
2011-07-26, 00:59:04,VALID,1000.24,VALID,0,VALID,86.2757,VALID,0,VALID,22.9988,VALID,145,VALID,1.19531,
2011-07-26, 01:00:04,VALID,1000.24,VALID,0,VALID,85.5738,VALID,0,VALID,23.1176,VALID,152,VALID,1.27109,
2011-07-26, 01:01:04,VALID,1000.24,VALID,0,VALID,85.0703,VALID,0,VALID,23.2737,VALID,164,VALID,1.53281,
2011-07-26, 01:02:04,VALID,1000.21,VALID,0,VALID,84.3455,VALID,0,VALID,23.4298,VALID,158,VALID,1.69062,
2011-07-26, 01:03:04,VALID,1000.22,VALID,0,VALID,83.9487,VALID,0,VALID,23.5274,VALID,166,VALID,1.88984,
2011-07-26, 01:04:04,VALID,1000.24,VALID,0,VALID,83.5062,VALID,0,VALID,23.6054,VALID,157,VALID,1.5043,
2011-07-26, 01:05:04,VALID,1000.24,VALID,0,VALID,83.3307,VALID,0,VALID,23.6445,VALID,155,VALID,1.34648,
2011-07-26, 01:06:04,VALID,1000.19,VALID,0,VALID,83.14,VALID,0,VALID,23.664,VALID,155,VALID,1.15313,
2011-07-26, 01:07:04,VALID,1000.21,VALID,0,VALID,83.0408,VALID,0,VALID,23.703,VALID,165,VALID,1.30273,
2011-07-26, 01:08:04,VALID,1000.2,VALID,0,VALID,82.8729,VALID,0,VALID,23.7225,VALID,148,VALID,1.69805,
2011-07-26, 01:09:04,VALID,1000.18,VALID,0,VALID,82.6593,VALID,0,VALID,23.7616,VALID,160,VALID,1.45,
2011-07-26, 01:10:04,VALID,1000.2,VALID,0,VALID,82.7051,VALID,0,VALID,23.742,VALID,150,VALID,1.05391,
2011-07-26, 01:11:04,VALID,1000.19,VALID,0,VALID,82.7203,VALID,0,VALID,23.703,VALID,150,VALID,0.64375,
2011-07-26, 01:12:04,VALID,1000.2,VALID,0,VALID,82.995,VALID,0,VALID,23.664,VALID,150,VALID,0.491016,
2011-07-26, 01:13:04,VALID,1000.2,VALID,0,VALID,83.056,VALID,0,VALID,23.625,VALID,149,VALID,0.314844,
2011-07-26, 01:14:04,VALID,1000.19,VALID,0,VALID,83.056,VALID,0,VALID,23.5859,VALID,144,VALID,0.864062,
2011-07-26, 01:15:04,VALID,1000.16,VALID,0,VALID,83.0866,VALID,0,VALID,23.5256,VALID,115,VALID,0.661328,
2011-07-26, 01:16:04,VALID,1000.16,VALID,0,VALID,83.6435,VALID,0,VALID,23.4866,VALID,118,VALID,0.989453,
2011-07-26, 01:17:04,VALID,1000.13,VALID,0,VALID,83.819,VALID,0,VALID,23.4475,VALID,128,VALID,1.27148,
2011-07-26, 01:18:04,VALID,1000.12,VALID,0,VALID,83.9869,VALID,0,VALID,23.4458,VALID,161,VALID,1.52344,
2011-07-26, 01:19:04,VALID,1000.13,VALID,0,VALID,83.8419,VALID,0,VALID,23.5256,VALID,148,VALID,1.73047,
2011-07-26, 01:20:04,VALID,1000.1,VALID,0,VALID,83.6588,VALID,0,VALID,23.5628,VALID,147,VALID,1.30313,
2011-07-26, 01:21:04,VALID,1000.1,VALID,0,VALID,83.4452,VALID,0,VALID,23.5823,VALID,149,VALID,1.27344,
2011-07-26, 01:22:04,VALID,1000.04,VALID,0,VALID,83.1323,VALID,0,VALID,23.6622,VALID,155,VALID,1.2582,
2011-07-26, 01:23:04,VALID,1000.06,VALID,0,VALID,82.8119,VALID,0,VALID,23.7207,VALID,164,VALID,1.34805,
2011-07-26, 01:24:04,VALID,1000.03,VALID,0,VALID,82.728,VALID,0,VALID,23.7402,VALID,164,VALID,1.38789,
2011-07-26, 01:25:04,VALID,1000.02,VALID,0,VALID,82.6135,VALID,0,VALID,23.7402,VALID,164,VALID,1.3207,
2011-07-26, 01:26:04,VALID,1000.01,VALID,0,VALID,82.5296,VALID,0.112286,VALID,23.7579,VALID,155,VALID,1.23906,
2011-07-26, 01:27:04,VALID,1000.01,VALID,0,VALID,82.3236,VALID,0,VALID,23.7988,VALID,142,VALID,1.01445,
2011-07-26, 01:28:04,VALID,1000.02,VALID,0,VALID,82.3236,VALID,0,VALID,23.7793,VALID,159,VALID,1.07813,
2011-07-26, 01:29:04,VALID,1000.01,VALID,0,VALID,82.3694,VALID,0,VALID,23.7988,VALID,167,VALID,1.47148,
2011-07-26, 01:30:04,VALID,1000.03,VALID,0,VALID,82.2931,VALID,0,VALID,23.8183,VALID,164,VALID,0.9,
2011-07-26, 01:31:04,VALID,1000.03,VALID,0,VALID,82.1786,VALID,0,VALID,23.8591,VALID,165,VALID,1.31133,
2011-07-26, 01:32:04,VALID,1000,VALID,0,VALID,82.2702,VALID,0,VALID,23.8378,VALID,158,VALID,1.29258,
2011-07-26, 01:33:04,VALID,999.959,VALID,0,VALID,81.9498,VALID,0,VALID,23.8573,VALID,157,VALID,1.24609,
2011-07-26, 01:34:04,VALID,999.972,VALID,0,VALID,81.9498,VALID,0,VALID,23.8573,VALID,160,VALID,1.38203,
2011-07-26, 01:35:04,VALID,999.978,VALID,0,VALID,81.9955,VALID,0,VALID,23.8768,VALID,160,VALID,1.53516,
2011-07-26, 01:36:04,VALID,999.965,VALID,0,VALID,81.8353,VALID,0,VALID,23.8768,VALID,158,VALID,1.38477,
2011-07-26, 01:37:04,VALID,999.943,VALID,0,VALID,81.8124,VALID,0,VALID,23.8963,VALID,169,VALID,1.29492,
2011-07-26, 01:38:04,VALID,999.938,VALID,0,VALID,81.5301,VALID,0,VALID,23.9159,VALID,152,VALID,1.03672,
2011-07-26, 01:39:04,VALID,999.928,VALID,0,VALID,81.4386,VALID,0,VALID,23.8963,VALID,144,VALID,1.09102,
2011-07-26, 01:40:04,VALID,999.895,VALID,0,VALID,81.6064,VALID,0,VALID,23.8768,VALID,147,VALID,1.33633,
2011-07-26, 01:41:04,VALID,999.86,VALID,0,VALID,81.8277,VALID,0,VALID,23.8573,VALID,144,VALID,1.50977,
2011-07-26, 01:42:04,VALID,999.865,VALID,0,VALID,81.7666,VALID,0,VALID,23.8573,VALID,164,VALID,1.21641,
2011-07-26, 01:43:04,VALID,999.846,VALID,0,VALID,81.6827,VALID,0,VALID,23.8963,VALID,166,VALID,1.35898,
2011-07-26, 01:44:04,VALID,999.841,VALID,0,VALID,81.5378,VALID,0,VALID,23.8963,VALID,164,VALID,1.23281,
2011-07-26, 01:45:04,VALID,999.811,VALID,0,VALID,81.5454,VALID,0,VALID,23.8963,VALID,165,VALID,1.34258,
2011-07-26, 01:46:04,VALID,999.792,VALID,0,VALID,81.5835,VALID,0,VALID,23.8963,VALID,170,VALID,1.2332,
2011-07-26, 01:47:04,VALID,999.786,VALID,0,VALID,81.4996,VALID,0,VALID,23.8963,VALID,166,VALID,1.23125,
2011-07-26, 01:48:04,VALID,999.725,VALID,0,VALID,81.4691,VALID,0,VALID,23.8963,VALID,167,VALID,1.2582,
2011-07-26, 01:49:04,VALID,999.683,VALID,0,VALID,81.408,VALID,0,VALID,23.8963,VALID,168,VALID,1.34141,
2011-07-26, 01:50:04,VALID,999.696,VALID,0,VALID,81.3089,VALID,0,VALID,23.9354,VALID,160,VALID,1.53125,
2011-07-26, 01:51:04,VALID,999.668,VALID,0,VALID,81.2478,VALID,0,VALID,23.9354,VALID,161,VALID,1.35781,
2011-07-26, 01:52:04,VALID,999.639,VALID,0,VALID,81.141,VALID,0,VALID,23.9549,VALID,167,VALID,1.50156,
2011-07-26, 01:53:04,VALID,999.65,VALID,0,VALID,81.141,VALID,0,VALID,23.9549,VALID,172,VALID,1.54648,
2011-07-26, 01:54:04,VALID,999.654,VALID,0,VALID,81.0495,VALID,0,VALID,23.9549,VALID,175,VALID,1.52656,
2011-07-26, 01:55:04,VALID,999.6,VALID,0,VALID,81.08,VALID,0,VALID,23.9744,VALID,187,VALID,1.73125,
2011-07-26, 01:56:04,VALID,999.554,VALID,0,VALID,80.9808,VALID,0,VALID,23.9939,VALID,173,VALID,1.39766,
2011-07-26, 01:57:04,VALID,999.529,VALID,0,VALID,80.9198,VALID,0,VALID,23.9726,VALID,173,VALID,1.64219,
2011-07-26, 01:58:04,VALID,999.469,VALID,0,VALID,80.8816,VALID,0,VALID,24.0134,VALID,176,VALID,1.91758,
2011-07-26, 01:59:04,VALID,999.483,VALID,0,VALID,80.729,VALID,0,VALID,24.0329,VALID,170,VALID,1.62383,
2011-07-26, 02:00:04,VALID,999.5,VALID,0,VALID,80.6603,VALID,0,VALID,24.0134,VALID,181,VALID,1.68828,
2011-07-26, 02:01:04,VALID,999.464,VALID,0,VALID,80.6069,VALID,0,VALID,24.0348,VALID,175,VALID,1.89219,
2011-07-26, 02:02:04,VALID,999.496,VALID,0,VALID,80.5154,VALID,0,VALID,24.0543,VALID,169,VALID,1.60312,
2011-07-26, 02:03:04,VALID,999.488,VALID,0,VALID,80.4543,VALID,0,VALID,24.0348,VALID,172,VALID,1.71797,
2011-07-26, 02:04:04,VALID,999.457,VALID,0,VALID,80.5459,VALID,0,VALID,23.9762,VALID,163,VALID,1.7543,
2011-07-26, 02:05:04,VALID,999.456,VALID,0,VALID,80.7061,VALID,0,VALID,23.9177,VALID,158,VALID,1.48164,
2011-07-26, 02:06:04,VALID,999.45,VALID,0,VALID,80.9655,VALID,0,VALID,23.8396,VALID,154,VALID,1.49141,
2011-07-26, 02:07:04,VALID,999.427,VALID,0,VALID,81.3394,VALID,0,VALID,23.8006,VALID,160,VALID,1.64727,
2011-07-26, 02:08:04,VALID,999.437,VALID,0,VALID,81.5301,VALID,0,VALID,23.7616,VALID,158,VALID,1.63633,
2011-07-26, 02:09:04,VALID,999.463,VALID,0,VALID,81.5912,VALID,0,VALID,23.742,VALID,154,VALID,1.54648,
2011-07-26, 02:10:04,VALID,999.479,VALID,0,VALID,81.6903,VALID,0,VALID,23.7225,VALID,158,VALID,1.31836,
2011-07-26, 02:11:04,VALID,999.484,VALID,0,VALID,81.8429,VALID,0,VALID,23.6835,VALID,158,VALID,0.962109,
2011-07-26, 02:12:04,VALID,999.469,VALID,0,VALID,82.1329,VALID,0,VALID,23.6445,VALID,156,VALID,1.22383,
2011-07-26, 02:13:04,VALID,999.445,VALID,0,VALID,82.2015,VALID,0,VALID,23.6054,VALID,150,VALID,1.04023,
2011-07-26, 02:14:04,VALID,999.392,VALID,0,VALID,82.3999,VALID,0,VALID,23.5859,VALID,147,VALID,1.04883,
2011-07-26, 02:15:04,VALID,999.375,VALID,0,VALID,82.4533,VALID,0,VALID,23.5646,VALID,144,VALID,1.20078,
2011-07-26, 02:16:04,VALID,999.407,VALID,0,VALID,82.7127,VALID,0,VALID,23.5664,VALID,150,VALID,1.33008,
2011-07-26, 02:17:04,VALID,999.421,VALID,0,VALID,82.6059,VALID,0,VALID,23.5238,VALID,154,VALID,1.17422,
2011-07-26, 02:18:04,VALID,999.422,VALID,0,VALID,82.6212,VALID,0,VALID,23.5646,VALID,161,VALID,1.24063,
2011-07-26, 02:19:04,VALID,999.416,VALID,0,VALID,82.4075,VALID,0,VALID,23.5646,VALID,161,VALID,1.06094,
2011-07-26, 02:20:04,VALID,999.377,VALID,0,VALID,82.2092,VALID,0,VALID,23.6036,VALID,156,VALID,1.17266,
2011-07-26, 02:21:04,VALID,999.353,VALID,0,VALID,81.9879,VALID,0,VALID,23.6232,VALID,157,VALID,1.15469,
2011-07-26, 02:22:04,VALID,999.311,VALID,0,VALID,82.0718,VALID,0,VALID,23.6427,VALID,162,VALID,1.37266,
2011-07-26, 02:23:04,VALID,999.37,VALID,0,VALID,81.9574,VALID,0,VALID,23.6427,VALID,155,VALID,1.69531,
2011-07-26, 02:24:04,VALID,999.364,VALID,0,VALID,81.8277,VALID,0,VALID,23.6817,VALID,170,VALID,0.988281,
2011-07-26, 02:25:04,VALID,999.365,VALID,0,VALID,81.7209,VALID,0,VALID,23.7012,VALID,155,VALID,1.125,
2011-07-26, 02:26:04,VALID,999.342,VALID,0,VALID,81.82,VALID,0,VALID,23.7012,VALID,171,VALID,1.38711,
2011-07-26, 02:27:04,VALID,999.337,VALID,0,VALID,81.7514,VALID,0,VALID,23.7207,VALID,168,VALID,1.31875,
2011-07-26, 02:28:04,VALID,999.347,VALID,0,VALID,81.7819,VALID,0,VALID,23.7402,VALID,169,VALID,1.84727,
2011-07-26, 02:29:04,VALID,999.317,VALID,0,VALID,81.4615,VALID,0,VALID,23.7988,VALID,174,VALID,1.80742,
2011-07-26, 02:30:04,VALID,999.328,VALID,0,VALID,81.0876,VALID,0,VALID,23.8573,VALID,178,VALID,1.79102,
2011-07-26, 02:31:04,VALID,999.317,VALID,0,VALID,80.8435,VALID,0,VALID,23.8555,VALID,170,VALID,1.5457,
2011-07-26, 02:32:04,VALID,999.323,VALID,0,VALID,80.668,VALID,0,VALID,23.9159,VALID,167,VALID,1.4543,
2011-07-26, 02:33:04,VALID,999.326,VALID,0,VALID,80.5535,VALID,0,VALID,23.875,VALID,160,VALID,1.3875,
2011-07-26, 02:34:04,VALID,999.351,VALID,0,VALID,80.5993,VALID,0,VALID,23.8555,VALID,163,VALID,1.19922,
2011-07-26, 02:35:04,VALID,999.339,VALID,0,VALID,80.7748,VALID,0,VALID,23.7988,VALID,141,VALID,1.43906,
2011-07-26, 02:36:04,VALID,999.348,VALID,0,VALID,81.0342,VALID,0,VALID,23.7012,VALID,150,VALID,0.782812,
2011-07-26, 02:37:04,VALID,999.345,VALID,0,VALID,81.0037,VALID,0,VALID,23.5451,VALID,97,VALID,0.931641,
2011-07-26, 02:38:04,VALID,999.351,VALID,0,VALID,82.2702,VALID,0,VALID,23.311,VALID,92,VALID,0.809766,
2011-07-26, 02:39:04,VALID,999.372,VALID,0,VALID,82.5067,VALID,0,VALID,23.1354,VALID,89,VALID,0.600391,
2011-07-26, 02:40:04,VALID,999.373,VALID,0,VALID,83.3994,VALID,0,VALID,22.9598,VALID,66,VALID,0.673828,
2011-07-26, 02:41:04,VALID,999.402,VALID,0,VALID,84.1929,VALID,0,VALID,22.8232,VALID,66,VALID,0.460938,
2011-07-26, 02:42:04,VALID,999.394,VALID,0,VALID,84.6964,VALID,0,VALID,22.6867,VALID,66,VALID,0.455859,
2011-07-26, 02:43:04,VALID,999.369,VALID,0,VALID,85.2534,VALID,0,VALID,22.5892,VALID,66,VALID,0.510156,
2011-07-26, 02:44:04,VALID,999.397,VALID,0,VALID,85.3907,VALID,0,VALID,22.4721,VALID,66,VALID,0.844922,
2011-07-26, 02:45:04,VALID,999.379,VALID,0,VALID,85.8409,VALID,0,VALID,22.3551,VALID,66,VALID,0.9375,
2011-07-26, 02:46:04,VALID,999.406,VALID,0,VALID,86.4054,VALID,0,VALID,22.2397,VALID,66,VALID,1.02734,
2011-07-26, 02:47:04,VALID,999.406,VALID,0,VALID,86.8632,VALID,0,VALID,22.082,VALID,66,VALID,0.776172,
2011-07-26, 02:48:04,VALID,999.399,VALID,0,VALID,87.2218,VALID,0,VALID,21.965,VALID,66,VALID,0.596484,
2011-07-26, 02:49:04,VALID,999.395,VALID,0,VALID,87.6262,VALID,0,VALID,21.887,VALID,66,VALID,0.74375,
2011-07-26, 02:50:04,VALID,999.386,VALID,0,VALID,87.939,VALID,0,VALID,21.809,VALID,66,VALID,0.769141,
2011-07-26, 02:51:04,VALID,999.399,VALID,0,VALID,88.3129,VALID,0,VALID,21.7115,VALID,66,VALID,0.633984,
2011-07-26, 02:52:04,VALID,999.386,VALID,0,VALID,88.6867,VALID,0,VALID,21.6725,VALID,66,VALID,0.772266,
2011-07-26, 02:53:04,VALID,999.378,VALID,0,VALID,88.969,VALID,0,VALID,21.614,VALID,66,VALID,0.828516,
2011-07-26, 02:54:04,VALID,999.382,VALID,0,VALID,89.2437,VALID,0,VALID,21.5555,VALID,66,VALID,0.793359,
2011-07-26, 02:55:04,VALID,999.402,VALID,0,VALID,89.5183,VALID,0,VALID,21.536,VALID,66,VALID,0.6625,
2011-07-26, 02:56:04,VALID,999.415,VALID,0,VALID,89.3963,VALID,0,VALID,21.458,VALID,66,VALID,0.503516,
2011-07-26, 02:57:04,VALID,999.417,VALID,0,VALID,89.6099,VALID,0,VALID,21.38,VALID,66,VALID,0.560547,
2011-07-26, 02:58:04,VALID,999.41,VALID,0,VALID,89.9074,VALID,0,VALID,21.341,VALID,66,VALID,0.608594,
2011-07-26, 02:59:04,VALID,999.419,VALID,0,VALID,90.1516,VALID,0.112286,VALID,21.3199,VALID,66,VALID,0.519141,
2011-07-26, 03:00:04,VALID,999.388,VALID,0,VALID,90.3347,VALID,0,VALID,21.302,VALID,66,VALID,0.472656,
2011-07-26, 03:01:04,VALID,999.425,VALID,0,VALID,90.3576,VALID,0,VALID,21.263,VALID,66,VALID,0.554297,
2011-07-26, 03:02:04,VALID,999.422,VALID,0,VALID,90.3347,VALID,0,VALID,21.2435,VALID,66,VALID,0.521094,
2011-07-26, 03:03:04,VALID,999.431,VALID,0,VALID,90.4491,VALID,0,VALID,21.224,VALID,66,VALID,0.458203,
2011-07-26, 03:04:04,VALID,999.442,VALID,0,VALID,90.4263,VALID,0.112286,VALID,21.2045,VALID,66,VALID,0.873828,
2011-07-26, 03:05:04,VALID,999.423,VALID,0,VALID,90.4415,VALID,0,VALID,21.185,VALID,40,VALID,0.952344,
2011-07-26, 03:06:04,VALID,999.439,VALID,0,VALID,90.5254,VALID,0,VALID,21.2045,VALID,40,VALID,0.976563,
2011-07-26, 03:07:04,VALID,999.458,VALID,0,VALID,90.4797,VALID,0,VALID,21.2045,VALID,40,VALID,1.17813,
2011-07-26, 03:08:04,VALID,999.472,VALID,0,VALID,90.3271,VALID,0,VALID,21.1639,VALID,36,VALID,1.37695,
2011-07-26, 03:09:04,VALID,999.475,VALID,0,VALID,90.2431,VALID,0,VALID,21.146,VALID,35,VALID,1.49492,
2011-07-26, 03:10:04,VALID,999.508,VALID,0,VALID,90.2203,VALID,0,VALID,21.107,VALID,35,VALID,1.23203,
2011-07-26, 03:11:04,VALID,999.484,VALID,0,VALID,90.3118,VALID,0,VALID,21.0875,VALID,35,VALID,1.38984,
2011-07-26, 03:12:04,VALID,999.533,VALID,0,VALID,90.4949,VALID,0,VALID,21.068,VALID,35,VALID,1.4125,
2011-07-26, 03:13:04,VALID,999.539,VALID,0,VALID,90.5788,VALID,0,VALID,21.0485,VALID,35,VALID,1.37969,
2011-07-26, 03:14:04,VALID,999.543,VALID,0,VALID,90.6017,VALID,0,VALID,21.0501,VALID,35,VALID,1.1418,
2011-07-26, 03:15:04,VALID,999.523,VALID,0,VALID,90.6628,VALID,0,VALID,21.0306,VALID,35,VALID,0.955469,
2011-07-26, 03:16:04,VALID,999.515,VALID,0,VALID,90.7009,VALID,0,VALID,21.0111,VALID,35,VALID,0.735547,
2011-07-26, 03:17:04,VALID,999.488,VALID,0,VALID,90.8154,VALID,0,VALID,20.9916,VALID,35,VALID,0.713672,
2011-07-26, 03:18:04,VALID,999.504,VALID,0,VALID,90.9527,VALID,0,VALID,20.99,VALID,61,VALID,0.737891,
2011-07-26, 03:19:04,VALID,999.481,VALID,0,VALID,91.1587,VALID,0,VALID,20.99,VALID,61,VALID,0.616406,
2011-07-26, 03:20:04,VALID,999.48,VALID,0,VALID,91.296,VALID,0,VALID,21.0095,VALID,61,VALID,0.530859,
2011-07-26, 03:21:04,VALID,999.466,VALID,0,VALID,91.3571,VALID,0,VALID,21.029,VALID,61,VALID,0.374219,
2011-07-26, 03:22:04,VALID,999.482,VALID,0,VALID,91.3647,VALID,0,VALID,21.0095,VALID,61,VALID,0.191797,
2011-07-26, 03:23:04,VALID,999.479,VALID,0,VALID,91.3647,VALID,0,VALID,20.99,VALID,61,VALID,0.00546875,
2011-07-26, 03:24:04,VALID,999.467,VALID,0,VALID,91.3266,VALID,0,VALID,20.9721,VALID,61,VALID,0.170703,
2011-07-26, 03:25:04,VALID,999.494,VALID,0,VALID,91.4105,VALID,0,VALID,20.9705,VALID,14,VALID,0.3875,
2011-07-26, 03:26:04,VALID,999.511,VALID,0,VALID,91.5326,VALID,0,VALID,21.0111,VALID,14,VALID,0.380078,
2011-07-26, 03:27:04,VALID,999.521,VALID,0,VALID,91.5936,VALID,0,VALID,21.0306,VALID,12,VALID,0.156641,
2011-07-26, 03:28:04,VALID,999.547,VALID,0,VALID,91.6546,VALID,0,VALID,21.0501,VALID,12,VALID,0.1375,
2011-07-26, 03:29:04,VALID,999.562,VALID,0,VALID,91.6546,VALID,0,VALID,21.0306,VALID,12,VALID,0.335547,
2011-07-26, 03:30:04,VALID,999.553,VALID,0,VALID,91.7004,VALID,0.112286,VALID,21.0696,VALID,12,VALID,0.732422,
2011-07-26, 03:31:04,VALID,999.545,VALID,0,VALID,91.6775,VALID,0,VALID,21.029,VALID,12,VALID,0.798828,
2011-07-26, 03:32:04,VALID,999.511,VALID,0,VALID,91.6241,VALID,0.112286,VALID,21.029,VALID,12,VALID,0.647266,
2011-07-26, 03:33:04,VALID,999.508,VALID,0,VALID,91.5249,VALID,0.112286,VALID,20.99,VALID,12,VALID,0.400781,
2011-07-26, 03:34:04,VALID,999.474,VALID,0,VALID,91.4105,VALID,0,VALID,20.9104,VALID,12,VALID,0.547266,
2011-07-26, 03:35:04,VALID,999.494,VALID,0,VALID,91.4028,VALID,0,VALID,20.912,VALID,12,VALID,0.383984,
2011-07-26, 03:36:04,VALID,999.474,VALID,0,VALID,91.4868,VALID,0,VALID,20.8714,VALID,12,VALID,0.200781,
2011-07-26, 03:37:04,VALID,999.502,VALID,0,VALID,91.5707,VALID,0.112286,VALID,20.8925,VALID,12,VALID,0.123828,
2011-07-26, 03:38:04,VALID,999.506,VALID,0,VALID,91.6546,VALID,0,VALID,20.912,VALID,12,VALID,0.262891,
2011-07-26, 03:39:04,VALID,999.486,VALID,0,VALID,91.7614,VALID,0,VALID,20.912,VALID,12,VALID,0.336328,
2011-07-26, 03:40:04,VALID,999.515,VALID,0,VALID,91.8148,VALID,0.112286,VALID,20.8714,VALID,12,VALID,0.379687,
2011-07-26, 03:41:04,VALID,999.506,VALID,0,VALID,91.8683,VALID,0.112286,VALID,20.8714,VALID,12,VALID,0.444141,
2011-07-26, 03:42:04,VALID,999.495,VALID,0,VALID,91.9674,VALID,0,VALID,20.912,VALID,12,VALID,0.539453,
2011-07-26, 03:43:04,VALID,999.534,VALID,0,VALID,92.0285,VALID,0,VALID,20.912,VALID,12,VALID,0.4125,
2011-07-26, 03:44:04,VALID,999.537,VALID,0,VALID,92.0743,VALID,0,VALID,20.912,VALID,12,VALID,0.107031,
2011-07-26, 03:45:04,VALID,999.544,VALID,0,VALID,92.0819,VALID,0,VALID,20.9136,VALID,12,VALID,0.615625,
2011-07-26, 03:46:04,VALID,999.54,VALID,0,VALID,92.1277,VALID,0,VALID,20.8941,VALID,12,VALID,0.643359,